Tracking 19176 objects as of 26-May-2018
HD Live streaming from Space Station
objects crossing your sky now

COSMOS 2214

Track COSMOS 2214 now!
10-day predictions
COSMOS 2214 is classified as:


NORAD ID: 22185
Int'l Code: 1992-068D
Perigee: 1,417.5 km
Apogee: 1,430.1 km
Inclination: 82.6 °
Period: 114.1 minutes
Semi major axis: 7794 km
RCS: 1.1573 m2 (large)
Launch date: October 20, 1992
Source: Commonwealth of Independent States (former USSR) (CIS)
Launch site: PLESETSK MISSILE AND SPACE COMPLEX (PKMTR)
aabbcc
Your satellite tracking list
Your tracking list is empty




NASA's NSSDC Master Catalog

Two Line Element Set (TLE):
1 22185U 92068D   18145.33380372 +.00000005 +00000-0 -28802-4 0  9991
2 22185 082.5941 066.8101 0008084 344.9646 138.9224 12.61520514178324
Source of the keplerian elements: AFSPC